Regional Weather Roundup
Issued by NWS

Home | Current Version | Previous Version | Graphics & Text | Print | Product List | Glossary On
Versions: 1 2 3 4 5 6 7 8 9 10 11 12 13 14 15 16 17 18 19 20 21 22 23 24 25 26 27 28 29 30 31 32 33 34 35 36 37 38 39 40 41 42 43 44 45 46 47 48 49 50
000
ASUS45 KCYS 141310
RWRWY

WYOMING REGIONAL WEATHER ROUNDUP
NATIONAL WEATHER SERVICE CHEYENNE WY
700 AM MDT SUN SEP 14 2014

NOTE:  "FAIR" INDICATES FEW OR NO CLOUDS BELOW 12,000 FEET
WITH NO SIGNIFICANT WEATHER AND/OR OBSTRUCTIONS TO VISIBILITY.

WYZ001-141400-
YELLOWSTONE NATIONAL PARK

CITY           SKY/WX    TMP DP  RH WIND       PRES   REMARKS
LK YELLOWSTONE   N/A     27  25  92 NW3       30.20S
W YELLOWSTONE  NOT AVBL

$$
WYZ002>013-054>058-071-098>099-141400-
NORTHERN WYOMING

CITY           SKY/WX    TMP DP  RH WIND       PRES   REMARKS
JACKSON        CLEAR     30  28  93 N7          N/A  WCI  23
CODY           CLEAR     39  36  87 CALM      30.07S
GREYBULL       CLEAR     37  36  96 CALM      30.07R
WORLAND        CLEAR     35  34  96 S3        30.07R
SHERIDAN       CLEAR     32  29  88 CALM      30.08S
BUFFALO        CLEAR     37  33  85 SE7       30.08S WCI  32
GILLETTE       CLEAR     37  34  89 S7        30.09F WCI  32
HULETT         FAIR      39  34  81 MISG      30.13
NEWCASTLE      FAIR      34  34 100 CALM      30.14

$$
WYZ014>020-022>026-101>103-141400-
CENTRAL WYOMING

CITY           SKY/WX    TMP DP  RH WIND       PRES   REMARKS
BIG PINEY      MOCLDY    34  24  67 N3        30.19R
PINEDALE       MOSUNNY   30  28  93 W6        30.19S WCI  24
DUBOIS         FAIR      32  27  80 NW8       30.13S WCI  25
LANDER         MOCLDY    37  32  82 CALM      30.09S
RIVERTON       PTCLDY    36  30  79 NW8       30.10S WCI  30
CASPER         CLEAR     35  30  82 NW5       30.10S WCI  31
DOUGLAS        PTCLDY    34  32  92 N3        30.12S

$$
WYZ021-027>030-104>119-141400-
SOUTHERN WYOMING

CITY           SKY/WX    TMP DP  RH WIND       PRES   REMARKS
EVANSTON       MOCLDY    52  28  39 S7        30.19R
KEMMERER       PTSUNNY   39  32  75 N8        30.20R WCI  34
FORT BRIDGER   FAIR      54  28  36 W8        30.20S
ROCK SPRINGS   PTCLDY    53  25  33 S3        30.17R
DIXON          FAIR      40  33  77 SE6       30.23R
RAWLINS        PTCLDY    41  29  62 E3        30.17S
SARATOGA       FAIR      43  32  65 S9        30.20S
LARAMIE        CLEAR     40  30  67 SW7       30.19R
CHEYENNE       CLEAR     44  34  67 W7        30.14R
TORRINGTON     CLOUDY    43  42  97 E3        30.10R
PINE BLUFFS    FAIR      37  37 100 SW5       30.12S WCI  34

$$


USA.gov is the U.S. government's official web portal to all federal, state and local government web resources and services.